TimeMST,TemperatureF,Dew PointF,Humidity,Sea Level PressureIn,VisibilityMPH,Wind Direction,Wind SpeedMPH,Gust SpeedMPH,PrecipitationIn,Events,Conditions,WindDirDegrees,DateUTC
12:15 AM,39.2,12.2,33,30.28,10.0,NE,3.5,-,N/A,,Clear,50,2012-11-13 07:15:00
12:35 AM,37.4,12.2,36,30.28,10.0,ENE,4.6,-,N/A,,Clear,60,2012-11-13 07:35:00
12:55 AM,37.4,12.2,36,30.27,10.0,ESE,4.6,-,N/A,,Clear,110,2012-11-13 07:55:00
1:15 AM,39.2,12.2,33,30.27,10.0,ESE,5.8,-,N/A,,Clear,120,2012-11-13 08:15:00
1:55 AM,35.6,15.8,44,30.27,10.0,Calm,Calm,-,N/A,,Clear,0,2012-11-13 08:55:00
2:15 AM,39.2,12.2,33,30.27,10.0,ENE,3.5,-,N/A,,Clear,60,2012-11-13 09:15:00
2:35 AM,37.4,12.2,36,30.27,10.0,NE,3.5,-,N/A,,Clear,50,2012-11-13 09:35:00
2:55 AM,37.4,14.0,38,30.27,10.0,NE,3.5,-,N/A,,Clear,50,2012-11-13 09:55:00
3:15 AM,37.4,10.4,33,30.27,10.0,Calm,Calm,-,N/A,,Clear,0,2012-11-13 10:15:00
3:35 AM,37.4,12.2,36,30.27,10.0,Calm,Calm,-,N/A,,Clear,0,2012-11-13 10:35:00
3:55 AM,35.6,12.2,38,30.27,10.0,NNE,4.6,-,N/A,,Clear,20,2012-11-13 10:55:00
4:15 AM,35.6,10.4,35,30.26,10.0,NNE,3.5,-,N/A,,Clear,20,2012-11-13 11:15:00
4:55 AM,37.4,10.4,33,30.27,10.0,NNE,5.8,-,N/A,,Clear,20,2012-11-13 11:55:00
5:15 AM,35.6,10.4,35,30.27,10.0,NNE,4.6,-,N/A,,Clear,30,2012-11-13 12:15:00
5:35 AM,35.6,10.4,35,30.27,10.0,NE,5.8,-,N/A,,Clear,40,2012-11-13 12:35:00
5:55 AM,35.6,8.6,33,30.28,10.0,NE,4.6,-,N/A,,Clear,40,2012-11-13 12:55:00
6:15 AM,35.6,8.6,33,30.28,10.0,NNE,3.5,-,N/A,,Clear,30,2012-11-13 13:15:00
6:35 AM,35.6,10.4,35,30.28,10.0,NNE,6.9,-,N/A,,Clear,30,2012-11-13 13:35:00
6:55 AM,35.6,8.6,33,30.29,10.0,NE,5.8,-,N/A,,Clear,40,2012-11-13 13:55:00
7:15 AM,35.6,8.6,33,30.29,10.0,ENE,5.8,-,N/A,,Clear,60,2012-11-13 14:15:00
7:35 AM,37.4,8.6,30,30.29,10.0,NE,5.8,-,N/A,,Clear,40,2012-11-13 14:35:00
7:55 AM,39.2,8.6,28,30.29,10.0,NNE,6.9,-,N/A,,Clear,20,2012-11-13 14:55:00
8:15 AM,42.8,8.6,25,30.29,10.0,NE,8.1,-,N/A,,Clear,40,2012-11-13 15:15:00
8:35 AM,44.6,10.4,25,30.29,10.0,NE,5.8,-,N/A,,Clear,40,2012-11-13 15:35:00
8:55 AM,46.4,10.4,23,30.29,10.0,NE,5.8,-,N/A,,Clear,40,2012-11-13 15:55:00
9:15 AM,46.4,8.6,22,30.28,10.0,NE,8.1,-,N/A,,Clear,40,2012-11-13 16:15:00
9:35 AM,48.2,12.2,24,30.28,10.0,East,4.6,-,N/A,,Clear,90,2012-11-13 16:35:00
9:55 AM,51.8,10.4,19,30.28,10.0,ENE,4.6,-,N/A,,Clear,70,2012-11-13 16:55:00
10:15 AM,51.8,8.6,18,30.28,10.0,ENE,3.5,-,N/A,,Clear,60,2012-11-13 17:15:00
10:35 AM,53.6,8.6,16,30.28,10.0,Calm,Calm,-,N/A,,Clear,0,2012-11-13 17:35:00
10:55 AM,55.4,8.6,15,30.27,10.0,ENE,6.9,-,N/A,,Clear,70,2012-11-13 17:55:00
11:15 AM,57.2,8.6,14,30.27,10.0,ENE,6.9,-,N/A,,Clear,60,2012-11-13 18:15:00
11:35 AM,57.2,6.8,13,30.27,10.0,ENE,3.5,-,N/A,,Clear,70,2012-11-13 18:35:00
11:55 AM,57.2,8.6,14,30.26,10.0,SE,5.8,-,N/A,,Clear,140,2012-11-13 18:55:00
12:15 PM,59.0,6.8,13,30.25,10.0,Calm,Calm,-,N/A,,Clear,0,2012-11-13 19:15:00
12:35 PM,60.8,8.6,13,30.24,10.0,SSW,4.6,-,N/A,,Clear,200,2012-11-13 19:35:00
12:55 PM,60.8,8.6,13,30.23,10.0,South,4.6,-,N/A,,Clear,190,2012-11-13 19:55:00
1:15 PM,62.6,10.4,13,30.23,10.0,ESE,4.6,-,N/A,,Clear,120,2012-11-13 20:15:00
1:35 PM,62.6,8.6,12,30.22,10.0,Calm,Calm,-,N/A,,Clear,0,2012-11-13 20:35:00
1:55 PM,62.6,8.6,12,30.21,10.0,ENE,4.6,-,N/A,,Clear,70,2012-11-13 20:55:00
2:15 PM,62.6,8.6,12,30.20,10.0,ENE,3.5,-,N/A,,Clear,70,2012-11-13 21:15:00
2:35 PM,64.4,8.6,11,30.20,10.0,ESE,8.1,-,N/A,,Clear,110,2012-11-13 21:35:00
2:55 PM,64.4,8.6,11,30.20,10.0,SSE,3.5,-,N/A,,Clear,160,2012-11-13 21:55:00
3:15 PM,64.4,8.6,11,30.20,10.0,Calm,Calm,-,N/A,,Clear,0,2012-11-13 22:15:00
3:35 PM,62.6,10.4,13,30.20,10.0,SW,3.5,-,N/A,,Clear,230,2012-11-13 22:35:00
4:15 PM,62.6,10.4,13,30.20,10.0,ENE,5.8,-,N/A,,Clear,70,2012-11-13 23:15:00
4:35 PM,62.6,12.2,14,30.21,10.0,ENE,5.8,-,N/A,,Clear,60,2012-11-13 23:35:00
4:55 PM,60.8,12.2,15,30.21,10.0,East,4.6,-,N/A,,Clear,90,2012-11-13 23:55:00
5:15 PM,57.2,12.2,17,30.21,10.0,East,3.5,-,N/A,,Clear,90,2012-11-14 00:15:00
5:35 PM,53.6,14.0,21,30.22,10.0,NE,4.6,-,N/A,,Clear,40,2012-11-14 00:35:00
5:55 PM,51.8,14.0,22,30.22,10.0,North,4.6,-,N/A,,Clear,10,2012-11-14 00:55:00
6:15 PM,50.0,14.0,24,30.23,9.0,North,5.8,-,N/A,,Clear,350,2012-11-14 01:15:00
6:35 PM,48.2,14.0,25,30.24,10.0,North,6.9,-,N/A,,Clear,10,2012-11-14 01:35:00
6:55 PM,48.2,14.0,25,30.24,10.0,NNE,5.8,-,N/A,,Clear,20,2012-11-14 01:55:00
7:15 PM,46.4,14.0,27,30.25,10.0,NNE,4.6,-,N/A,,Clear,30,2012-11-14 02:15:00
7:35 PM,44.6,14.0,29,30.24,10.0,NNE,3.5,-,N/A,,Clear,30,2012-11-14 02:35:00
7:55 PM,44.6,14.0,29,30.24,10.0,NE,3.5,-,N/A,,Clear,40,2012-11-14 02:55:00
8:15 PM,44.6,12.2,27,30.25,10.0,NNE,5.8,-,N/A,,Clear,30,2012-11-14 03:15:00
8:35 PM,46.4,10.4,23,30.25,10.0,ENE,3.5,-,N/A,,Clear,60,2012-11-14 03:35:00
8:55 PM,44.6,12.2,27,30.26,10.0,ENE,5.8,-,N/A,,Clear,70,2012-11-14 03:55:00
9:15 PM,44.6,12.2,27,30.26,10.0,SSE,3.5,-,N/A,,Clear,150,2012-11-14 04:15:00
9:35 PM,46.4,10.4,23,30.26,10.0,ESE,3.5,-,N/A,,Clear,120,2012-11-14 04:35:00
9:55 PM,46.4,8.6,22,30.26,10.0,East,5.8,-,N/A,,Clear,90,2012-11-14 04:55:00
10:15 PM,44.6,8.6,23,30.26,10.0,NE,3.5,-,N/A,,Clear,50,2012-11-14 05:15:00
10:35 PM,42.8,8.6,25,30.26,10.0,NNE,3.5,-,N/A,,Clear,30,2012-11-14 05:35:00
10:55 PM,44.6,6.8,21,30.26,10.0,Calm,Calm,-,N/A,,Clear,0,2012-11-14 05:55:00
11:15 PM,46.4,5.0,18,30.26,10.0,ENE,3.5,-,N/A,,Clear,60,2012-11-14 06:15:00
11:35 PM,46.4,3.2,17,30.26,10.0,ENE,3.5,-,N/A,,Clear,60,2012-11-14 06:35:00
11:55 PM,44.6,5.0,20,30.26,10.0,NE,3.5,-,N/A,,Clear,40,2012-11-14 06:55:00